This is the latest recevied weather packets stored in our database for station/object IU3IOK-3. If no packets are shown the sender has not sent any weather packets the latest 10 day(s).
| Time | Temp. | Humidity | Pressure | Rain* | Wind** | Luminosity | Snow |
|---|---|---|---|---|---|---|---|
| 1776957101 | 21.11° C | 31% | 1017.8 hPa | - | - | - | - |
| 1776956201 | 21.11° C | 30% | 1018 hPa | - | - | - | - |
| 1776955301 | 21.11° C | 29% | 1018.1 hPa | - | - | - | - |
| 1776954401 | 21.67° C | 31% | 1018.2 hPa | - | - | - | - |
| 1776953501 | 21.11° C | 30% | 1018.3 hPa | - | - | - | - |
| 1776952601 | 21.11° C | 31% | 1018.6 hPa | - | - | - | - |
| 1776951701 | 21.11° C | 30% | 1018.9 hPa | - | - | - | - |
| 1776950802 | 21.11° C | 30% | 1019.1 hPa | - | - | - | - |
| 1776949902 | 21.11° C | 31% | 1019.4 hPa | - | - | - | - |
| 1776949002 | 21.11° C | 30% | 1019.7 hPa | - | - | - | - |
| 1776948102 | 21.11° C | 31% | 1019.9 hPa | - | - | - | - |
| 1776947202 | 21.11° C | 32% | 1020.1 hPa | - | - | - | - |
| 1776946302 | 21.67° C | 32% | 1020.4 hPa | - | - | - | - |
| 1776945402 | 21.67° C | 32% | 1020.6 hPa | - | - | - | - |
| 1776944502 | 21.67° C | 31% | 1020.7 hPa | - | - | - | - |
| 1776943602 | 22.22° C | 32% | 1020.9 hPa | - | - | - | - |
| 1776942702 | 21.67° C | 32% | 1021.2 hPa | - | - | - | - |
| 1776941802 | 21.67° C | 32% | 1021.5 hPa | - | - | - | - |
| 1776940902 | 21.11° C | 32% | 1021.7 hPa | - | - | - | - |
| 1776940002 | 21.11° C | 33% | 1021.9 hPa | - | - | - | - |
| 1776939102 | 21.11° C | 33% | 1022.1 hPa | - | - | - | - |
| 1776938202 | 21.11° C | 34% | 1022.3 hPa | - | - | - | - |
| 1776937302 | 20.56° C | 35% | 1022.5 hPa | - | - | - | - |
| 1776936402 | 20° C | 35% | 1022.8 hPa | - | - | - | - |
| 1776935502 | 20° C | 37% | 1022.9 hPa | - | - | - | - |
* Rain since midnight (hover to see other rain measurements)
** Current wind speed in m/s (hover to see current wind gust speed)